| time (UTC) | temp F | wind direction | speed MPH | gust MPH | rain 1hr in | rain 24hr in | rain mn in | humidity % | barometer mb |
| 20260505041723 | 63 | 183 | 0.0 | 5.0 | 0.00 | 0.00 | 0.00 | 75 | |
| 20260505041221 | 63 | 216 | 0.0 | 4.0 | 0.00 | 0.00 | 0.00 | 75 | |
| 20260505040718 | 64 | 353 | 2.0 | 4.0 | 0.00 | 0.00 | 0.00 | 74 | |
| 20260505040215 | 64 | 261 | 0.0 | 4.0 | 0.00 | 0.00 | 0.00 | 74 | |
| 20260505035712 | 64 | 171 | 3.0 | 3.0 | 0.00 | 0.00 | 0.00 | 73 | |
| 20260505035208 | 65 | 124 | 1.0 | 4.0 | 0.00 | 0.00 | 0.00 | 72 | |
| 20260505034704 | 65 | 107 | 2.0 | 6.0 | 0.00 | 0.00 | 0.00 | 72 | |
| 20260505034202 | 64 | 88 | 0.0 | 2.0 | 0.00 | 0.00 | 0.00 | 73 | |
| 20260505033658 | 65 | 62 | 2.0 | 3.0 | 0.00 | 0.00 | 0.00 | 72 | |
| 20260505033156 | 65 | 127 | 0.0 | 3.0 | 0.00 | 0.00 | 0.00 | 71 | |
| 20260505032654 | 66 | 129 | 0.0 | 3.0 | 0.00 | 0.00 | 0.00 | 70 | |
| 20260505032155 | 67 | 69 | 0.0 | 2.0 | 0.00 | 0.00 | 0.00 | 69 | |
| 20260505031652 | 67 | 135 | 0.0 | 1.0 | 0.00 | 0.00 | 0.00 | 67 | |
| 20260505031149 | 68 | 107 | 1.0 | 2.0 | 0.00 | 0.00 | 0.00 | 65 | |
| 20260505030646 | 69 | 129 | 0.0 | 2.0 | 0.00 | 0.00 | 0.00 | 64 | |
| 20260505030141 | 69 | 19 | 0.0 | 4.0 | 0.00 | 0.00 | 0.00 | 63 | |
| 20260505025638 | 69 | 225 | 1.0 | 4.0 | 0.00 | 0.00 | 0.00 | 62 | |
| 20260505025136 | 70 | 29 | 0.0 | 3.0 | 0.00 | 0.00 | 0.00 | 60 | |
| 20260505024633 | 70 | 309 | 0.0 | 3.0 | 0.00 | 0.00 | 0.00 | 56 | |
| 20260505024130 | 71 | 208 | 2.0 | 3.0 | 0.00 | 0.00 | 0.00 | 54 | |
| 20260505023628 | 72 | 218 | 1.0 | 3.0 | 0.00 | 0.00 | 0.00 | 53 | |
| 20260505023125 | 73 | 241 | 0.0 | 3.0 | 0.00 | 0.00 | 0.00 | 52 | |
| 20260505022623 | 73 | 236 | 1.0 | 5.0 | 0.00 | 0.00 | 0.00 | 53 | |
| 20260505022119 | 74 | 213 | 1.0 | 3.0 | 0.00 | 0.00 | 0.00 | 51 | |
| 20260505021616 | 74 | 349 | 2.0 | 4.0 | 0.00 | 0.00 | 0.00 | 51 | |
| 20260505021113 | 73 | 232 | 3.0 | 3.0 | 0.00 | 0.00 | 0.00 | 52 | |
| 20260505020608 | 73 | 259 | 1.0 | 5.0 | 0.00 | 0.00 | 0.00 | 53 | |
| 20260505020104 | 73 | 334 | 3.0 | 8.0 | 0.00 | 0.00 | 0.00 | 54 | |
| 20260505015602 | 75 | 330 | 3.0 | 8.0 | 0.00 | 0.00 | 0.00 | 52 | |
| 20260505015058 | 76 | 292 | 0.0 | 4.0 | 0.00 | 0.00 | 0.00 | 51 | |
| 20260505014555 | 77 | 203 | 2.0 | 7.0 | 0.00 | 0.00 | 0.00 | 50 | |
| 20260505014052 | 77 | 53 | 3.0 | 7.0 | 0.00 | 0.00 | 0.00 | 50 | |
| 20260505013549 | 77 | 80 | 3.0 | 5.0 | 0.00 | 0.00 | 0.00 | 49 | |
| 20260505013047 | 78 | 89 | 0.0 | 5.0 | 0.00 | 0.00 | 0.00 | 50 | |
| 20260505012545 | 79 | 182 | 1.0 | 5.0 | 0.00 | 0.00 | 0.00 | 48 | |
| 20260505012042 | 79 | 105 | 1.0 | 5.0 | 0.00 | 0.00 | 0.00 | 48 | |
| 20260505011537 | 79 | 255 | 3.0 | 5.0 | 0.00 | 0.00 | 0.00 | 48 | |
| 20260505011035 | 79 | 224 | 2.0 | 4.0 | 0.00 | 0.00 | 0.00 | 48 | |
| 20260505010530 | 79 | 50 | 1.0 | 4.0 | 0.00 | 0.00 | 0.00 | 48 | |
| 20260505010027 | 79 | 120 | 0.0 | 7.0 | 0.00 | 0.00 | 0.00 | 47 | |
| 20260505005523 | 80 | 177 | 1.0 | 6.0 | 0.00 | 0.00 | 0.00 | 46 | |
| 20260505005021 | 79 | 117 | 2.0 | 9.0 | 0.00 | 0.00 | 0.00 | 45 | |
| 20260505004518 | 80 | 253 | 1.0 | 6.0 | 0.00 | 0.00 | 0.00 | 44 | |
| 20260505004014 | 80 | 239 | 3.0 | 5.0 | 0.00 | 0.00 | 0.00 | 44 | |
| 20260505003511 | 78 | 238 | 0.0 | 7.0 | 0.00 | 0.00 | 0.00 | 45 | |
| 20260505003009 | 80 | 99 | 2.0 | 4.0 | 0.00 | 0.00 | 0.00 | 43 | |
| 20260505002504 | 81 | 245 | 4.0 | 7.0 | 0.00 | 0.00 | 0.00 | 43 | |
| 20260505002003 | 79 | 131 | 0.0 | 5.0 | 0.00 | 0.00 | 0.00 | 44 | |
| 20260505001500 | 80 | 119 | 5.0 | 6.0 | 0.00 | 0.00 | 0.00 | 43 | |
| 20260505000956 | 81 | 104 | 3.0 | 5.0 | 0.00 | 0.00 | 0.00 | 42 | |
| 20260505000454 | 79 | 131 | 3.0 | 6.0 | 0.00 | 0.00 | 0.00 | 44 | |
| 20260504235951 | 79 | 108 | 3.0 | 6.0 | 0.00 | 0.00 | 0.00 | 43 | |
| 20260504235448 | 80 | 186 | 2.0 | 5.0 | 0.00 | 0.00 | 0.00 | 44 | |
| 20260504234945 | 79 | 115 | 3.0 | 8.0 | 0.00 | 0.00 | 0.00 | 43 | |
| 20260504234442 | 82 | 241 | 4.0 | 6.0 | 0.00 | 0.00 | 0.00 | 41 | |
| 20260504233938 | 81 | 112 | 2.0 | 5.0 | 0.00 | 0.00 | 0.00 | 41 | |
| 20260504233434 | 79 | 230 | 3.0 | 6.0 | 0.00 | 0.00 | 0.00 | 43 | |
| 20260504232931 | 81 | 212 | 2.0 | 4.0 | 0.00 | 0.00 | 0.00 | 40 | |
| 20260504232428 | 80 | 312 | 0.0 | 6.0 | 0.00 | 0.00 | 0.00 | 42 | |
| 20260504231926 | 79 | 102 | 2.0 | 7.0 | 0.00 | 0.00 | 0.00 | 42 | |
| 20260504231422 | 80 | 215 | 0.0 | 6.0 | 0.00 | 0.00 | 0.00 | 43 | |
| 20260504230918 | 80 | 103 | 0.0 | 6.0 | 0.00 | 0.00 | 0.00 | 42 | |
| 20260504230415 | 80 | 180 | 0.0 | 5.0 | 0.00 | 0.00 | 0.00 | 42 | |
| 20260504225914 | 79 | 199 | 0.0 | 5.0 | 0.00 | 0.00 | 0.00 | 43 | |
| 20260504225410 | 78 | 98 | 3.0 | 9.0 | 0.00 | 0.00 | 0.00 | 43 | |
| 20260504224908 | 78 | 120 | 3.0 | 6.0 | 0.00 | 0.00 | 0.00 | 43 | |
| 20260504224404 | 78 | 96 | 2.0 | 7.0 | 0.00 | 0.00 | 0.00 | 43 | |
| 20260504223902 | 78 | 239 | 2.0 | 9.0 | 0.00 | 0.00 | 0.00 | 43 | |
| 20260504223356 | 77 | 121 | 5.0 | 8.0 | 0.00 | 0.00 | 0.00 | 42 | |
| 20260504222853 | 79 | 234 | 1.0 | 6.0 | 0.00 | 0.00 | 0.00 | 45 | |
| 20260504222350 | 78 | 132 | 2.0 | 11.0 | 0.00 | 0.00 | 0.00 | 42 | |
| 20260504221849 | 77 | 123 | 5.0 | 8.0 | 0.00 | 0.00 | 0.00 | 44 | |
| 20260504221345 | 78 | 64 | 1.0 | 6.0 | 0.00 | 0.00 | 0.00 | 45 | |
| 20260504220842 | 77 | 190 | 0.0 | 6.0 | 0.00 | 0.00 | 0.00 | 48 | |
| 20260504220339 | 77 | 245 | 3.0 | 9.0 | 0.00 | 0.00 | 0.00 | 45 | |
| 20260504215836 | 77 | 230 | 4.0 | 7.0 | 0.00 | 0.00 | 0.00 | 46 | |
| 20260504215332 | 76 | 236 | 2.0 | 9.0 | 0.00 | 0.00 | 0.00 | 50 | |
| 20260504214828 | 77 | 209 | 1.0 | 5.0 | 0.00 | 0.00 | 0.00 | 49 | |
| 20260504214326 | 78 | 195 | 2.0 | 5.0 | 0.00 | 0.00 | 0.00 | 49 | |
| 20260504213822 | 77 | 219 | 4.0 | 7.0 | 0.00 | 0.00 | 0.00 | 49 | |
| 20260504213318 | 78 | 230 | 0.0 | 5.0 | 0.00 | 0.00 | 0.00 | 50 | |
| 20260504212816 | 76 | 93 | 0.0 | 9.0 | 0.00 | 0.00 | 0.00 | 51 | |
| 20260504212312 | 76 | 80 | 3.0 | 7.0 | 0.00 | 0.00 | 0.00 | 52 | |
| 20260504211810 | 77 | 119 | 5.0 | 7.0 | 0.00 | 0.00 | 0.00 | 51 | |
| 20260504211305 | 76 | 116 | 0.0 | 6.0 | 0.00 | 0.00 | 0.00 | 51 | |
| 20260504210803 | 77 | 124 | 2.0 | 5.0 | 0.00 | 0.00 | 0.00 | 51 | |
| 20260504210300 | 76 | 233 | 2.0 | 6.0 | 0.00 | 0.00 | 0.00 | 54 | |
| 20260504205757 | 76 | 129 | 2.0 | 3.0 | 0.00 | 0.00 | 0.00 | 53 | |
| 20260504205255 | 75 | 117 | 5.0 | 9.0 | 0.00 | 0.00 | 0.00 | 53 | |
| 20260504204753 | 76 | 259 | 2.0 | 6.0 | 0.00 | 0.00 | 0.00 | 54 | |
| 20260504204251 | 75 | 222 | 1.0 | 6.0 | 0.00 | 0.00 | 0.00 | 54 | |
| 20260504203750 | 76 | 217 | 0.0 | 8.0 | 0.00 | 0.00 | 0.00 | 54 | |
| 20260504203246 | 76 | 223 | 2.0 | 7.0 | 0.00 | 0.00 | 0.00 | 54 | |
| 20260504202741 | 76 | 111 | 3.0 | 4.0 | 0.00 | 0.00 | 0.00 | 52 | |
| 20260504202239 | 75 | 223 | 4.0 | 6.0 | 0.00 | 0.00 | 0.00 | 54 | |
| 20260504201736 | 74 | 81 | 1.0 | 5.0 | 0.00 | 0.00 | 0.00 | 55 | |
| 20260504201233 | 74 | 152 | 0.0 | 4.0 | 0.00 | 0.00 | 0.00 | 54 | |
| 20260504200731 | 75 | 269 | 0.0 | 6.0 | 0.00 | 0.00 | 0.00 | 54 | |
| 20260504200226 | 75 | 184 | 2.0 | 4.0 | 0.00 | 0.00 | 0.00 | 53 | |
| 20260504195723 | 73 | 206 | 1.0 | 8.0 | 0.00 | 0.00 | 0.00 | 57 | |
| 20260504195219 | 73 | 206 | 2.0 | 8.0 | 0.00 | 0.00 | 0.00 | 55 | |
| 20260504194716 | 74 | 232 | 2.0 | 7.0 | 0.00 | 0.00 | 0.00 | 54 | |
| 20260504194212 | 75 | 147 | 2.0 | 3.0 | 0.00 | 0.00 | 0.00 | 51 | |
| 20260504193709 | 76 | 124 | 2.0 | 7.0 | 0.00 | 0.00 | 0.00 | 49 | |
| 20260504193206 | 75 | 251 | 0.0 | 3.0 | 0.00 | 0.00 | 0.00 | 51 | |
| 20260504192705 | 74 | 93 | 1.0 | 6.0 | 0.00 | 0.00 | 0.00 | 50 | |
| 20260504192202 | 74 | 49 | 2.0 | 6.0 | 0.00 | 0.00 | 0.00 | 52 | |
| 20260504191701 | 73 | 100 | 0.0 | 5.0 | 0.00 | 0.00 | 0.00 | 55 | |
| 20260504191156 | 74 | 235 | 0.0 | 5.0 | 0.00 | 0.00 | 0.00 | 50 | |
| 20260504190652 | 73 | 142 | 2.0 | 4.0 | 0.00 | 0.00 | 0.00 | 53 | |
| 20260504190149 | 75 | 216 | 3.0 | 7.0 | 0.00 | 0.00 | 0.00 | 52 | |
| 20260504185646 | 75 | 154 | 1.0 | 3.0 | 0.00 | 0.00 | 0.00 | 51 | |
| 20260504185142 | 75 | 32 | 2.0 | 4.0 | 0.00 | 0.00 | 0.00 | 51 | |
| 20260504184639 | 74 | 82 | 2.0 | 3.0 | 0.00 | 0.00 | 0.00 | 50 | |
| 20260504184133 | 73 | 242 | 0.0 | 4.0 | 0.00 | 0.00 | 0.00 | 51 | |
| 20260504183631 | 72 | 203 | 3.0 | 6.0 | 0.00 | 0.00 | 0.00 | 49 | |
| 20260504183128 | 72 | 209 | 3.0 | 5.0 | 0.00 | 0.00 | 0.00 | 51 | |
| 20260504182626 | 71 | 233 | 4.0 | 6.0 | 0.00 | 0.00 | 0.00 | 52 | |
| 20260504182123 | 71 | 230 | 3.0 | 7.0 | 0.00 | 0.00 | 0.00 | 53 | |
| 20260504181620 | 70 | 237 | 2.0 | 7.0 | 0.00 | 0.00 | 0.00 | 52 | |
| 20260504181118 | 70 | 221 | 2.0 | 6.0 | 0.00 | 0.00 | 0.00 | 55 | |
| 20260504180617 | 71 | 229 | 3.0 | 4.0 | 0.00 | 0.00 | 0.00 | 55 | |
| 20260504180115 | 69 | 130 | 0.0 | 6.0 | 0.00 | 0.00 | 0.00 | 60 | |
| 20260504175612 | 69 | 240 | 3.0 | 4.0 | 0.00 | 0.00 | 0.00 | 59 | |
| 20260504175109 | 70 | 239 | 3.0 | 5.0 | 0.00 | 0.00 | 0.00 | 56 | |
| 20260504174607 | 70 | 285 | 2.0 | 4.0 | 0.00 | 0.00 | 0.00 | 55 | |
| 20260504174103 | 68 | 214 | 2.0 | 5.0 | 0.00 | 0.00 | 0.00 | 59 | |
| 20260504173600 | 69 | 238 | 2.0 | 4.0 | 0.00 | 0.00 | 0.00 | 58 | |
| 20260504173058 | 69 | 185 | 0.0 | 3.0 | 0.00 | 0.00 | 0.00 | 56 | |
| 20260504172554 | 69 | 282 | 2.0 | 4.0 | 0.00 | 0.00 | 0.00 | 59 | |
| 20260504172050 | 69 | 278 | 1.0 | 3.0 | 0.00 | 0.00 | 0.00 | 58 | |
| 20260504171547 | 69 | 288 | 2.0 | 4.0 | 0.00 | 0.00 | 0.00 | 60 | |
| 20260504171044 | 68 | 221 | 3.0 | 3.0 | 0.00 | 0.00 | 0.00 | 60 | |
| 20260504170540 | 68 | 296 | 1.0 | 3.0 | 0.00 | 0.00 | 0.00 | 63 | |
| 20260504150924 | 60 | 303 | 0.0 | 1.0 | 0.00 | 0.00 | 0.00 | 77 | |
| 20260504150421 | 60 | 321 | 0.0 | 2.0 | 0.00 | 0.00 | 0.00 | 77 | |
| 20260504140847 | 55 | 86 | 2.0 | 5.0 | 0.00 | 0.00 | 0.00 | 84 | |
| 20260504140343 | 55 | 91 | 3.0 | 4.0 | 0.00 | 0.00 | 0.00 | 85 | |
| 20260504130812 | 52 | 103 | 1.0 | 2.0 | 0.00 | 0.00 | 0.00 | 87 | |
| 20260504130308 | 52 | 68 | 1.0 | 3.0 | 0.00 | 0.00 | 0.00 | 85 | |
| 20260504120232 | 52 | 87 | 1.0 | 2.0 | 0.00 | 0.00 | 0.00 | 84 | |
| 20260504110659 | 55 | 79 | 3.0 | 4.0 | 0.00 | 0.00 | 0.00 | 80 | |
| 20260504110155 | 55 | 61 | 3.0 | 4.0 | 0.00 | 0.00 | 0.00 | 80 | |
| 20260504100615 | 54 | 96 | 3.0 | 3.0 | 0.00 | 0.00 | 0.00 | 83 | |
| 20260504100114 | 54 | 63 | 0.0 | 3.0 | 0.00 | 0.00 | 0.00 | 83 | |
| 20260504081507 | 59 | 235 | 0.0 | 2.0 | 0.00 | 0.00 | 0.00 | 67 | |
| 20260504081002 | 60 | 63 | 1.0 | 2.0 | 0.00 | 0.00 | 0.00 | 65 | |
| 20260504080459 | 60 | 58 | 0.0 | 2.0 | 0.00 | 0.00 | 0.00 | 65 | |
| 20260504050305 | 62 | 89 | 0.0 | 1.0 | 0.00 | 0.00 | 0.00 | 63 |